Weather History for KUSE - June, 2014

Change the Weather History Date:

Monday, June 9, 2014

  Actual Average (KTOL) Record (KTOL)
Temperature  
Mean Temperature 68 °F 68 °F  
Max Temperature 78 °F 79 °F 95 °F (1914)
Min Temperature 57 °F 57 °F 38 °F (1988)
Degree Days  
Heating Degree Days 0 2  
Month to date heating degree days 22  
Since 1 June heating degree days 22  
Since 1 July heating degree days 6132  
Cooling Degree Days 2 4  
Month to date cooling degree days 33  
Year to date cooling degree days 86  
Since 1 June cooling degree days 33  
Growing Degree Days 18 (Base 50)    
Moisture  
Dew Point 55 °F    
Average Humidity 68    
Maximum Humidity 100    
Minimum Humidity 36    
Precipitation  
Precipitation 0.00 in 0.12 in - ()
Month to date precipitation 1.11  
Year to date precipitation 14.48  
Snow  
Snow 0.00 in 0.00 in - ()
Month to date snowfall 0.0  
Since 1 June snowfall 0.0  
Since 1 July snowfall 37.6  
Snow Depth -    
Sea Level Pressure  
Sea Level Pressure 29.98 in    
Wind  
Wind Speed 3 mph (ENE)    
Max Wind Speed 10 mph    
Max Gust Speed 15 mph    
Visibility 10 miles    
Events      
T = Trace of Precipitation, MM = Missing Value Source: NWS Daily Summary

Daily Weather History Graph

Daily Weather History Graph

Search for Another Location

Airport or City:

Trip Planner

Search our weather history database for the weather conditions in past years. The results will help you decide how hot, cold, wet, or windy it might be!

Date:

Astronomy

Jun. 09, 2014 Rise Set
Actual Time 6:02 AM EDT 9:09 PM EDT
Civil Twilight 5:28 AM EDT 9:43 PM EDT
Nautical Twilight 4:45 AM EDT 10:26 PM EDT
Astronomical Twilight 3:53 AM EDT 11:18 PM EDT
Moon 5:27 PM EDT (6/9) 3:31 AM EDT (6/9)
Length of Visible Light 16h 15m
Length of Day
15h 07m
Waxing Gibbous, 85% of the Moon is Illuminated
Jun 9
Waxing Gibbous
Jun 13
Full
Jun 19
Last Quarter
Jun 27
New
Jul 5
First Quarter

Hourly Weather History & Observations

Time (EDT) Temp. Dew Point Humidity Pressure Visibility Wind Dir Wind Speed Gust Speed Precip Events Conditions
12:15 AM 59.0 °F 59.0 °F 100% 30.00 in 10.0 mi Calm Calm - N/A   Clear
12:35 AM 59.0 °F 59.0 °F 100% 30.00 in 10.0 mi NE 3.5 mph - N/A   Clear
12:55 AM 57.2 °F 57.2 °F 100% 30.00 in 10.0 mi Calm Calm - N/A   Clear
1:15 AM 59.0 °F 59.0 °F 100% 30.00 in 10.0 mi Calm Calm - N/A   Clear
1:35 AM 59.0 °F 57.2 °F 94% 30.00 in 10.0 mi Calm Calm - N/A   Clear
1:55 AM 57.2 °F 57.2 °F 100% 30.01 in 10.0 mi NE 4.6 mph - N/A   Clear
2:15 AM 57.2 °F 57.2 °F 100% 30.01 in 9.0 mi Calm Calm - N/A   Clear
2:35 AM 59.0 °F 57.2 °F 94% 30.01 in 10.0 mi Calm Calm - N/A   Clear
2:55 AM 59.0 °F 57.2 °F 94% 30.02 in 10.0 mi Calm Calm - N/A   Clear
3:15 AM 59.0 °F 57.2 °F 94% 30.01 in 10.0 mi Calm Calm - N/A   Clear
3:35 AM 59.0 °F 57.2 °F 94% 30.01 in 10.0 mi Calm Calm - N/A   Clear
3:55 AM 57.2 °F 57.2 °F 100% 30.01 in 10.0 mi Calm Calm - N/A   Clear
4:15 AM 57.2 °F 57.2 °F 100% 30.00 in 10.0 mi NNE 4.6 mph - N/A   Clear
4:35 AM 57.2 °F 57.2 °F 100% 29.99 in 10.0 mi NNE 8.1 mph - N/A   Clear
4:55 AM 57.2 °F 55.4 °F 94% 30.00 in 10.0 mi North 5.8 mph - N/A   Clear
5:15 AM 57.2 °F 55.4 °F 94% 29.99 in 10.0 mi NNE 5.8 mph - N/A   Clear
5:35 AM 57.2 °F 55.4 °F 94% 30.00 in 10.0 mi North 4.6 mph - N/A   Clear
5:55 AM 57.2 °F 55.4 °F 94% 30.00 in 10.0 mi NNE 3.5 mph - N/A   Clear
6:15 AM 57.2 °F 55.4 °F 94% 30.01 in 10.0 mi Calm Calm - N/A   Clear
6:35 AM 57.2 °F 55.4 °F 94% 30.01 in 10.0 mi North 4.6 mph - N/A   Clear
6:55 AM 57.2 °F 55.4 °F 94% 30.01 in 10.0 mi Calm Calm - N/A   Clear
7:15 AM 59.0 °F 57.2 °F 94% 30.01 in 10.0 mi NNE 4.6 mph - N/A   Clear
8:55 AM 62.6 °F 57.2 °F 82% 30.03 in 10.0 mi NE 8.1 mph - N/A   Clear
9:15 AM 62.6 °F 59.0 °F 88% 30.04 in 10.0 mi NNE 6.9 mph - N/A   Clear
9:35 AM 64.4 °F 57.2 °F 77% 30.03 in 10.0 mi NE 6.9 mph - N/A   Clear
9:55 AM 64.4 °F 57.2 °F 77% 30.03 in 10.0 mi NE 5.8 mph - N/A   Clear
10:15 AM 66.2 °F 57.2 °F 73% 30.02 in 10.0 mi ENE 5.8 mph - N/A   Clear
10:35 AM 68.0 °F 59.0 °F 73% 30.02 in 10.0 mi NE 4.6 mph - N/A   Clear
10:55 AM 68.0 °F 57.2 °F 68% 30.02 in 9.0 mi Variable 4.6 mph - N/A   Clear
11:15 AM 71.6 °F 57.2 °F 60% 30.01 in 10.0 mi Calm Calm - N/A   Clear
11:35 AM 71.6 °F 57.2 °F 60% 30.00 in 10.0 mi Variable 5.8 mph - N/A   Clear
11:55 AM 71.6 °F 55.4 °F 57% 30.01 in 10.0 mi East 5.8 mph - N/A   Clear
12:15 PM 73.4 °F 55.4 °F 53% 30.00 in 10.0 mi SE 6.9 mph - N/A   Clear
12:55 PM 75.2 °F 55.4 °F 50% 30.00 in 10.0 mi ENE 5.8 mph - N/A   Clear
1:15 PM 75.2 °F 53.6 °F 47% 30.00 in 10.0 mi Calm Calm 12.7 mph N/A   Clear
1:35 PM 77.0 °F 51.8 °F 41% 30.00 in 10.0 mi Variable 5.8 mph 11.5 mph N/A   Clear
1:55 PM 75.2 °F 51.8 °F 44% 29.99 in 10.0 mi Calm Calm - N/A   Partly Cloudy
2:15 PM 75.2 °F 53.6 °F 47% 29.99 in 10.0 mi Variable 5.8 mph 12.7 mph N/A   Clear
2:35 PM 77.0 °F 53.6 °F 44% 29.99 in 10.0 mi ESE 6.9 mph 12.7 mph N/A   Clear
3:55 PM 77.0 °F 51.8 °F 41% 29.96 in 10.0 mi NE 6.9 mph 12.7 mph N/A   Clear
4:15 PM 78.8 °F 51.8 °F 39% 29.95 in 10.0 mi ENE 9.2 mph - N/A   Clear
4:35 PM 78.8 °F 51.8 °F 39% 29.95 in 10.0 mi East 8.1 mph - N/A   Partly Cloudy
4:55 PM 78.8 °F 53.6 °F 42% 29.95 in 10.0 mi ESE 6.9 mph - N/A   Partly Cloudy
5:15 PM 78.8 °F 51.8 °F 39% 29.95 in 10.0 mi East 5.8 mph 15.0 mph N/A   Clear
5:35 PM 78.8 °F 51.8 °F 39% 29.94 in 10.0 mi ENE 6.9 mph 12.7 mph N/A   Clear
5:55 PM 78.8 °F 50.0 °F 36% 29.95 in 10.0 mi Variable 4.6 mph - N/A   Clear
6:15 PM 78.8 °F 50.0 °F 36% 29.95 in 10.0 mi Calm Calm - N/A   Clear
6:35 PM 78.8 °F 50.0 °F 36% 29.94 in 10.0 mi East 6.9 mph - N/A   Clear
6:55 PM 77.0 °F 50.0 °F 39% 29.95 in 10.0 mi Calm Calm - N/A   Clear
7:15 PM 77.0 °F 50.0 °F 39% 29.94 in 10.0 mi Variable 5.8 mph - N/A   Clear
7:35 PM 77.0 °F 50.0 °F 39% 29.94 in 10.0 mi ESE 6.9 mph - N/A   Clear
7:55 PM 77.0 °F 51.8 °F 41% 29.94 in 10.0 mi East 5.8 mph - N/A   Clear
8:15 PM 75.2 °F 50.0 °F 41% 29.94 in 10.0 mi ESE 10.4 mph - N/A   Clear
8:35 PM 73.4 °F 50.0 °F 44% 29.94 in 10.0 mi East 6.9 mph - N/A   Clear
8:55 PM 71.6 °F 51.8 °F 50% 29.94 in 10.0 mi East 6.9 mph - N/A   Clear
9:15 PM 69.8 °F 51.8 °F 53% 29.94 in 10.0 mi SE 5.8 mph - N/A   Clear
9:35 PM 69.8 °F 51.8 °F 53% 29.95 in 10.0 mi SE 4.6 mph - N/A   Clear
9:55 PM 66.2 °F 53.6 °F 64% 29.95 in 10.0 mi ESE 3.5 mph - N/A   Clear
10:15 PM 66.2 °F 53.6 °F 64% 29.94 in 10.0 mi ENE 4.6 mph - N/A   Clear
10:35 PM 64.4 °F 53.6 °F 68% 29.95 in 10.0 mi Calm Calm - N/A   Clear
11:15 PM 64.4 °F 53.6 °F 68% 29.95 in 10.0 mi Calm Calm - N/A   Clear
11:35 PM 64.4 °F 53.6 °F 68% 29.96 in 10.0 mi Calm Calm - N/A   Clear
11:55 PM 62.6 °F 51.8 °F 68% 29.95 in 10.0 mi Calm Calm - N/A   Clear